Weather History for Lake Charles, LA

Change the Weather History Date:

Thursday, January 2, 2014

  Actual Average Record
Temperature  
Mean Temperature 48 °F -  
Max Temperature 57 °F 60 °F 77 °F (2000)
Min Temperature 37 °F 44 °F 24 °F (2001)
Degree Days  
Heating Degree Days 18    
Moisture  
Dew Point 41 °F    
Average Humidity 73    
Maximum Humidity 100    
Minimum Humidity 40    
Precipitation  
Precipitation 0.21 in - - ()
Sea Level Pressure  
Sea Level Pressure 30.19 in    
Wind  
Wind Speed 7 mph (NNW)    
Max Wind Speed 20 mph    
Max Gust Speed 29 mph    
Visibility 7 miles    
Events Rain    
Averages and records for this station are not official NWS values.
T = Trace of Precipitation, MM = Missing Value Source: NWS Daily Summary

Daily Weather History Graph

Daily Weather History Graph

Search for Another Location

Airport:

Trip Planner

Search our weather history database for the weather conditions in past years. The results will help you decide how hot, cold, wet, or windy it might be!

Date:

Astronomy

Jan. 02, 2014 Rise Set
Actual Time 7:09 AM CST 5:24 PM CST
Civil Twilight 6:42 AM CST 5:50 PM CST
Nautical Twilight 6:13 AM CST 6:20 PM CST
Astronomical Twilight 5:43 AM CST 6:49 PM CST
Moon 7:58 AM CST (1/2) 7:12 PM CST (1/2)
Length of Visible Light 11h 07m
Length of Day
10h 15m
Waxing Crescent, 3% of the Moon is Illuminated
Jan 2
Waxing Crescent
Jan 7
First Quarter
Jan 15
Full
Jan 23
Last Quarter
Jan 30
New

Hourly Weather History & Observations

Time (CST) Temp. Windchill Dew Point Humidity Pressure Visibility Wind Dir Wind Speed Gust Speed Precip Events Conditions
12:15 AM 55.4 °F - 55.4 °F 100% 30.04 in 1.8 mi Calm Calm - N/A   Overcast
12:35 AM 55.4 °F - 55.4 °F 100% 30.04 in 1.2 mi NNW 3.5 mph - N/A   Overcast
12:55 AM 55.4 °F - 55.4 °F 100% 30.03 in 1.0 mi Calm Calm - 0.06 in Rain Rain
1:15 AM 55.4 °F - 55.4 °F 100% 30.04 in 1.0 mi NW 5.8 mph - 0.07 in Rain Rain
1:35 AM 55.4 °F - 55.4 °F 100% 30.05 in 1.5 mi WNW 6.9 mph - 0.14 in Rain Rain
1:55 AM 55.6 °F - 55.6 °F 100% 30.05 in 3.0 mi WNW 5.8 mph - 0.15 in   Light Drizzle
2:15 AM 55.6 °F - 55.6 °F 100% 30.05 in 4.0 mi NW 5.8 mph - N/A   Overcast
2:35 AM 55.4 °F - 55.4 °F 100% 30.04 in 2.5 mi NW 4.6 mph - N/A   Overcast
2:55 AM 55.6 °F - 55.6 °F 100% 30.04 in 2.0 mi NW 4.6 mph - N/A   Overcast
3:15 AM 55.6 °F - 55.6 °F 100% 30.04 in 2.0 mi NW 4.6 mph - N/A   Overcast
3:35 AM 55.8 °F - 55.8 °F 100% 30.04 in 2.0 mi WNW 3.5 mph - N/A   Overcast
3:55 AM 55.8 °F - 55.8 °F 100% 30.04 in 1.8 mi West 4.6 mph - N/A   Overcast
4:15 AM 56.3 °F - 56.3 °F 100% 30.04 in 3.0 mi WNW 10.4 mph - N/A   Overcast
4:35 AM 57.0 °F - 57.0 °F 100% 30.04 in 5.0 mi WNW 11.5 mph - N/A   Overcast
4:55 AM 57.2 °F - 55.9 °F 96% 30.04 in 7.0 mi NW 16.1 mph 21.9 mph N/A   Overcast
5:15 AM 56.7 °F - 54.9 °F 94% 30.04 in 7.0 mi NW 11.5 mph 20.7 mph N/A   Scattered Clouds
5:35 AM 56.3 °F - 54.5 °F 94% 30.05 in 7.0 mi NW 12.7 mph - N/A   Scattered Clouds
5:55 AM 56.7 °F - 53.1 °F 88% 30.05 in 10.0 mi NW 12.7 mph - N/A   Mostly Cloudy
6:00 AM 57.2 °F - 53.6 °F 88% 30.05 in 10.0 mi NW 12.7 mph - N/A   Mostly Cloudy
6:55 AM 53.6 °F - 48.2 °F 82% 30.09 in 10.0 mi NW 13.8 mph 24.2 mph N/A   Mostly Cloudy
7:50 AM 46.4 °F 40.4 °F 37.4 °F 71% 30.14 in 10.0 mi NW 13.8 mph 24.2 mph N/A   Mostly Cloudy
8:45 AM 44.6 °F 38.1 °F 35.6 °F 71% 30.19 in 10.0 mi NW 13.8 mph 24.2 mph N/A   Mostly Cloudy
9:50 AM 44.6 °F 38.1 °F 32.0 °F 61% 30.24 in 10.0 mi NW 13.8 mph 24.2 mph N/A   Mostly Cloudy
10:45 AM 44.6 °F 38.1 °F 30.2 °F 57% 30.25 in 10.0 mi North 13.8 mph 24.2 mph N/A   Mostly Cloudy
11:50 AM 48.2 °F - 30.2 °F 50% 30.23 in 10.0 mi North 13.8 mph 24.2 mph N/A   Mostly Cloudy
12:47 PM 51.8 °F - 30.2 °F 44% 30.21 in 10.0 mi North 13.8 mph 24.2 mph N/A   Scattered Clouds
1:50 PM 51.8 °F - 28.4 °F 41% 30.22 in 10.0 mi North 19.6 mph 28.8 mph N/A   Scattered Clouds
2:50 PM 53.6 °F - 30.2 °F 41% 30.24 in 10.0 mi NNW 16.1 mph 21.9 mph N/A   Mostly Cloudy
3:53 PM 53.6 °F - 30.2 °F 41% 30.27 in 10.0 mi NNW 12.7 mph 18.4 mph N/A   Mostly Cloudy
4:55 PM 50.0 °F - 26.6 °F 40% 30.30 in 10.0 mi North 8.1 mph - N/A   Mostly Cloudy
5:50 PM 46.4 °F 41.9 °F 24.8 °F 43% 30.33 in 10.0 mi North 9.2 mph - N/A   Scattered Clouds
6:52 PM 44.6 °F 38.8 °F 23.0 °F 43% 30.36 in 10.0 mi North 11.5 mph - N/A   Scattered Clouds
7:53 PM 42.8 °F 38.0 °F 23.0 °F 46% 30.39 in 10.0 mi North 8.1 mph 16.1 mph N/A   Scattered Clouds
8:50 PM 41.0 °F 36.4 °F 24.8 °F 53% 30.41 in 10.0 mi NNW 6.9 mph - N/A   Scattered Clouds
9:50 PM 39.2 °F 33.0 °F 24.8 °F 56% 30.41 in 10.0 mi North 9.2 mph - N/A   Clear
10:15 PM 40.1 °F 34.7 °F 23.2 °F 51% 30.41 in 10.0 mi North 8.1 mph - N/A   Clear
10:35 PM 40.1 °F 34.7 °F 22.6 °F 50% 30.41 in 10.0 mi North 8.1 mph - N/A   Clear
10:55 PM 39.4 °F 34.5 °F 22.8 °F 52% 30.42 in 10.0 mi North 6.9 mph - N/A   Clear
11:15 PM 39.2 °F 35.0 °F 23.0 °F 52% 30.42 in 10.0 mi North 5.8 mph - N/A   Clear
11:35 PM 38.7 °F 33.6 °F 22.8 °F 53% 30.43 in 10.0 mi North 6.9 mph - N/A   Clear
11:55 PM 37.9 °F 33.5 °F 23.2 °F 55% 30.43 in 10.0 mi North 5.8 mph - N/A   Clear